Regional Weather Roundup
Issued by NWS

Home | Current Version | Previous Version | Graphics & Text | Print | Product List | Glossary On
Versions: 1 2 3 4 5 6 7 8 9 10 11 12 13 14 15 16 17 18 19 20 21 22 23 24 25 26 27 28 29 30 31 32 33 34 35 36 37 38 39 40 41 42 43 44 45 46 47 48 49 50
000
ASUS43 KLOT 020408
RWRIL

ILLINOIS REGIONAL WEATHER ROUNDUP
NATIONAL WEATHER SERVICE CHICAGO/ROMEOVILLE IL
1100 PM CDT TUE SEP 01 2015

NOTE: "FAIR" INDICATES FEW OR NO CLOUDS BELOW 12,000 FEET WITH NO
SIGNIFICANT WEATHER AND/OR OBSTRUCTIONS TO VISIBILITY.

* THESE STATIONS ARE NOT UNDER NWS QUALITY CONTROL. THEY ALSO MAY NOT
  REPORT WEATHER SUCH AS PRECIPITATION OR FOG.

ILZ001-002-007-009-015-016-024-020500-
NORTHWEST ILLINOIS

CITY           SKY/WX    TMP DP  RH WIND       PRES   REMARKS
MOLINE         PTCLDY    78  69  73 SW6       30.02R HX  80
STERLING*      CLEAR     75  72  88 CALM      30.01S
SAVANNA*       PTCLDY    74  70  87 S6        30.02R
$$

ILZ003-004-008-010-011-017-018-020500-
NORTH CENTRAL ILLINOIS

CITY           SKY/WX    TMP DP  RH WIND       PRES   REMARKS
ROCKFORD       MOCLDY    73  69  87 S6        30.04R
FREEPORT*      PTCLDY    76  70  81 SW9       30.04R
ROCHELLE*      CLEAR     71  69  94 S5        30.04S
DE KALB*       CLEAR     73  71  92 S8        30.06R
PERU*          CLEAR     75  70  84 S6        30.05S
$$

ILZ005-006-012>014-019>023-020500-
NORTHEAST ILLINOIS

CITY           SKY/WX    TMP DP  RH WIND       PRES   REMARKS
CHICAGO-OHARE  PTCLDY    79  72  79 SW12      30.03R HX  82
CHICAGO-MIDWAY PTCLDY    80  71  74 SW10      30.03S HX  84
AURORA         CLEAR     77  71  82 S7        30.05R
LANSING*       CLEAR     75  70  83 SW8       30.05S
JOLIET*        CLEAR     78  71  79 SW5       30.04S HX  80
WAUKEGAN       CLEAR     78  72  81 S10       30.01S HX  80
DUPAGE AIRPORT CLEAR     77  71  82 S10       30.04R
KANKAKEE*      CLEAR     72  68  87 SW5       30.07S
WHEELING       CLEAR     80  72  76 S13       30.04R HX  84
MORRIS*        CLEAR     74  69  83 SW8       30.04S
ROMEOVILLE*    CLEAR     75  70  83 SW8       30.05S
NORTHERLY ISL    N/A     79  70  74 S12         N/A  HX  82
$$

LMZ740>746-020500-
SOUTHERN LAKE MICHIGAN

STATION/POSITION SKY/WX   TEMP    WIND        PRES    VSBY  WAVE
                          AIR SEA DIR/SP/G                  HT/PER
                          (F)     (DEG/KT/KT) (MB)    (MI)  (FT/S)
SOUTHERN BUOY              74 70  190/ 12/ 14 1015.9R         1/ 3
WILMETTE HARBOR            70 59   10/  8/  8   N/A           1
HARRISON CRIB              78     190/ 18/ 20   N/A
BURNHAM HARBOR             79     220/  8/ 13   N/A
CALUMET HARBOR             79     190/  7/  9   N/A
BURNS HARBOR               77     190/ 11/ 14 1017.9R
MICHIGAN CITY              77     170/ 12/ 14   N/A
MICHIGAN CITY 6N           76 72  210/ 10/ 12   N/A           1/ 2
ST. JOSEPH                 75 73  230/  6/  8   N/A           1/ 2
$$

ILZ025>027-034>036-040-047-049-050-058-095>099-020500-
WEST-CENTRAL ILLINOIS

CITY           SKY/WX    TMP DP  RH WIND       PRES   REMARKS
QUINCY         CLEAR     76  69  79 S5        30.06R
GALESBURG*     CLEAR     73  68  84 S5        30.05S
MACOMB*        CLEAR     78  70  76 SW7       30.07R HX  80
JACKSONVILLE*  CLEAR     79  72  78 S6        30.06F HX  82
PITTSFIELD*    CLEAR     77  70  78 S6        30.07F
$$

ILZ028>032-037-038-041>044-048-051>054-059>061-020500-
CENTRAL ILLINOIS

CITY           SKY/WX    TMP DP  RH WIND       PRES   REMARKS
PONTIAC        CLEAR     76  70  83 S8        30.07S
BLOOMINGTON    CLEAR     73  71  93 S9        30.09S
DECATUR        MOCLDY    77  70  79 S6        30.09S
PEORIA         CLEAR     78  68  71 S5        30.06R HX  80
LACON*         CLEAR     74  69  85 SE6       30.04S
LINCOLN*       PTCLDY    75  69  81 S3        30.06S
SPRINGFIELD    CLEAR     77  70  79 S8        30.07S
TAYLORVILLE    PTCLDY    73  70  88 S6        30.08S
$$

ILZ033-039-045-046-055>057-062-063-020500-
EAST-CENTRAL ILLINOIS

CITY           SKY/WX    TMP DP  RH WIND       PRES   REMARKS
CHAMPAIGN      PTCLDY    71  70  96 CALM      30.10S FOG
RANTOUL*       MOCLDY    73  69  87 CALM      30.09S
MATTOON        MOCLDY    74  67  78 S7        30.09S
PARIS*         PTCLDY    69  67  93 SW6       30.10S
$$

ILZ079-100>102-020500-
SOUTHWEST ILLINOIS

CITY           SKY/WX    TMP DP  RH WIND       PRES   REMARKS
ALTON          CLEAR     74  69  87 S5        30.08F
BELLEVILLE     CLEAR     75  74  96 CALM      30.07F
CAHOKIA*       CLEAR     77  70  79 CALM      30.08S
SPARTA*        CLEAR     75  71  87 S3        30.10F
$$

ILZ064>066-069>071-074>076-080>082-084>086-088>090-092>094-020500-
SOUTH-CENTRAL ILLINOIS

CITY           SKY/WX    TMP DP  RH WIND       PRES   REMARKS
CARBONDALE     CLEAR     71  69  93 CALM      30.10S
CAIRO*         PTCLDY    70  70 100 CALM      30.10S
EFFINGHAM*     PTCLDY    71  67  85 CALM      30.11S
MARION         CLEAR     73  72  94 CALM      30.11S
MT. VERNON     CLEAR     70  64  83 CALM      30.11S
CENTRALIA*     CLEAR     74  72  93 S3        30.09S
SALEM*         CLEAR     76  71  82 CALM      30.10S
METROPOLIS*    PTCLDY    71  71  99 CALM      30.11S
$$

ILZ067-068-072-073-078-083-087-091-020500-
SOUTHEAST ILLINOIS

CITY           SKY/WX    TMP DP  RH WIND       PRES   REMARKS
LAWRENCEVILLE  CLEAR     72  70  93 CALM      30.11R
FLORA*         CLEAR     71  67  89 CALM      30.10S
FAIRFIELD*     CLEAR     71  70  97 CALM      30.09S
HARRISBURG*    CLEAR     71  69  93 CALM      30.10F
ROBINSON*      CLEAR     68  67  96 CALM      30.11S FOG
CARMI*         CLEAR     68  67  96 CALM      30.10R
$$

ABBREVIATIONS USED IN REMARKS
   TC - TEMPERATURE IN CELSIUS
  WCI - WIND CHILL INDEX
   HX - HEAT INDEX
  VSB - VISIBILITY
$$




USA.gov is the U.S. government's official web portal to all federal, state and local government web resources and services.